Tracking 25620 objects as of 18-May-2022
HD Live streaming from Space Station
objects crossing your sky now

SL-12 R/B(2)

Track SL-12 R/B(2) now!


NORAD ID: 23883
Int'l Code: 1996-034D
Perigee: 36,305.3 km
Apogee: 36,612.4 km
Inclination: 15.2 °
Period: 1,470.2 minutes
Semi major axis: 42829 km
RCS: 2.9121 m2 (large)
Launch date: May 25, 1996
Source: Commonwealth of Independent States (former USSR) (CIS)
Launch site: TYURATAM MISSILE AND SPACE COMPLEX (TTMTR)

Note: This is a ROCKET BODY
aabbcc
Your satellite tracking list
Your tracking list is empty




NASA's NSSDC Master Catalog

Two Line Element Set (TLE):
1 23883U 96034D   22137.33394809 -.00000070  00000-0  00000-0 0  9998
2 23883  15.1583   8.9194 0035853  64.3625 147.9464  0.97945077 92925
Source of the keplerian elements: AFSPC